Location: Arbon
(43.0005°N, 0.7472°E)
Time: 22:17:53
(UTC+00:00)

Altair - Pass Details

Date: 05 December 2020
Orbit: 1501 x 1682 km, 47.2° (Epoch: 26 January)

Event Time Altitude Azimuth Distance (km) Brightness Sun altitude
Rises 00:19:28 0° 294° (WNW) 4,662 - -68.4°
Reaches altitude 10° 00:22:30 10° 293° (WNW) 3,668 - -68.2°
Maximum altitude 00:31:39 74° 211° (SSW) 1,556 - -67.5°
Drops below altitude 10° 00:40:48 10° 128° (SE) 3,669 - -66.6°
Sets 00:43:51 0° 127° (SE) 4,664 - -66.3°
